Weather reports worldwide

Advertisment
Pantelleria, Italy (16470): temperature & dewpoint: 10.08.2018 13:00:00 - 16.08.2018 13:00:00 (CEST)Pantelleria, Italy (16470): wind speed: 10.08.2018 13:00:00 - 16.08.2018 13:00:00 (CEST)Pantelleria, Italy (16470): wind direction: 10.08.2018 13:00:00 - 16.08.2018 13:00:00 (CEST)Pantelleria, Italy (16470): reduced air pressure: 10.08.2018 13:00:00 - 16.08.2018 13:00:00 (CEST)Pantelleria, Italy (16470): visibility: 10.08.2018 13:00:00 - 16.08.2018 13:00:00 (CEST)Pantelleria, Italy (16470): sunshine duration: 10.08.2018 13:00:00 - 16.08.2018 13:00:00 (CEST)
Date & Time tt [°C] td [°C] ff [km/h] ff [kn] dd ppp [hPa] vv [km] sd [min]
16.08.2018 13:00:00 27,6 26,5 29 16 NNW 1014,0 12 60
16.08.2018 12:00:00 27,2 25,4 18 10 N 1014,1 20 54
16.08.2018 11:00:00 26,0 25,7 16 9 NW 1014,2 15 60
16.08.2018 10:00:00 26,2 24,8 16 9 NNW 1013,5 20 48
16.08.2018 09:00:00 26,0 24,6 21 11 NNW 1013,4 20 30
16.08.2018 08:00:00 25,0 24,0 18 10 NW 1013,5 15 0
16.08.2018 07:00:00 24,2 23,2 13 7 NW 1013,2 15 0
16.08.2018 06:00:00 - - - - - - - -
16.08.2018 05:00:00 - - - - - - - -
16.08.2018 04:00:00 - - - - - - - -
16.08.2018 03:00:00 - - - - - - - -
16.08.2018 02:00:00 - - - - - - - -
16.08.2018 01:00:00 - - - - - - - -
16.08.2018 00:00:00 - - - - - - - -
15.08.2018 23:00:00 - - - - - - - -
15.08.2018 22:00:00 - - - - - - - -
15.08.2018 21:00:00 - - - - - - - -
15.08.2018 20:00:00 26,0 25,1 24 13 WNW 1013,3 15 12
15.08.2018 19:00:00 26,8 26,6 22 12 NW 1013,4 15 60
15.08.2018 18:00:00 27,6 25,0 29 16 WNW 1013,3 20 60
15.08.2018 17:00:00 28,2 25,6 28 15 NW 1013,4 20 60
15.08.2018 16:00:00 28,0 25,0 29 16 NW 1013,5 20 60
15.08.2018 15:00:00 28,0 24,4 31 17 WNW 1013,8 20 60
15.08.2018 14:00:00 28,4 25,4 26 14 WNW 1014,0 20 60
15.08.2018 13:00:00 27,6 24,9 16 9 NW 1014,0 20 60
15.08.2018 12:00:00 27,4 25,0 22 12 WNW 1014,0 20 60
15.08.2018 11:00:00 26,8 24,5 18 10 WNW 1013,8 20 60
15.08.2018 10:00:00 26,2 24,4 21 11 NW 1013,4 20 42
15.08.2018 09:00:00 26,0 25,1 15 8 NW 1013,4 15 42
15.08.2018 08:00:00 25,6 24,4 21 11 NW 1013,1 10 0
15.08.2018 07:00:00 25,2 24,0 18 10 NNW 1013,0 15 0
15.08.2018 06:00:00 - - - - - - - -
15.08.2018 05:00:00 - - - - - - - -
15.08.2018 04:00:00 - - - - - - - -
15.08.2018 03:00:00 - - - - - - - -
15.08.2018 02:00:00 - - - - - - - -
15.08.2018 01:00:00 - - - - - - - -
15.08.2018 00:00:00 - - - - - - - -
14.08.2018 23:00:00 - - - - - - - -
14.08.2018 22:00:00 - - - - - - - -
14.08.2018 21:00:00 - - - - - - - -
14.08.2018 20:00:00 27,8 26,0 9 5 ENE 1012,8 20 48
14.08.2018 19:00:00 30,4 25,7 11 6 WSW 1012,2 30 60
14.08.2018 18:00:00 31,0 23,4 5 3 S 1012,5 30 60
14.08.2018 17:00:00 29,8 27,8 15 8 SW 1012,7 30 60
14.08.2018 16:00:00 30,4 25,9 15 8 S 1012,3 30 60
14.08.2018 15:00:00 31,6 25,0 15 8 SW 1013,0 15 60
14.08.2018 14:00:00 28,6 28,3 11 6 NNE 1013,2 15 60
14.08.2018 13:00:00 30,6 27,8 9 5 SW 1013,9 12 60
14.08.2018 12:00:00 28,4 28,1 13 7 WNW 1014,2 12 60
14.08.2018 11:00:00 28,2 27,3 13 7 W 1014,2 12 60
14.08.2018 10:00:00 28,4 26,8 4 2 S 1014,1 12 60
14.08.2018 09:00:00 26,4 25,5 9 5 S 1013,8 12 60
14.08.2018 08:00:00 25,0 23,6 0 0 N 1013,8 12 48
14.08.2018 07:00:00 23,4 22,4 4 2 S 1013,6 10 0
14.08.2018 06:00:00 - - - - - - - -
14.08.2018 05:00:00 - - - - - - - -
14.08.2018 04:00:00 - - - - - - - -
14.08.2018 03:00:00 - - - - - - - -
14.08.2018 02:00:00 - - - - - - - -
14.08.2018 01:00:00 - - - - - - - -
14.08.2018 00:00:00 - - - - - - - -
13.08.2018 23:00:00 - - - - - - - -
13.08.2018 22:00:00 - - - - - - - -
13.08.2018 21:00:00 - - - - - - - -
13.08.2018 20:00:00 26,8 26,8 9 5 SW 1013,0 15 0
13.08.2018 19:00:00 27,4 27,1 9 5 SSW 1013,2 15 0
13.08.2018 18:00:00 27,2 27,2 11 6 SW 1013,3 11 0
13.08.2018 17:00:00 28,2 28,2 5 3 SSE 1013,5 11 12
13.08.2018 16:00:00 29,2 28,3 8 4 SSW 1013,9 11 0
13.08.2018 15:00:00 28,2 26,4 8 4 WSW 1014,5 10 0
13.08.2018 14:00:00 27,2 26,9 16 9 S 1014,9 10 0
13.08.2018 13:00:00 28,0 27,7 22 12 S 1015,5 10 0
13.08.2018 12:00:00 28,0 27,3 22 12 S 1015,5 10 24
13.08.2018 11:00:00 28,0 27,3 18 10 S 1015,5 10 0
13.08.2018 10:00:00 26,8 26,3 22 12 S 1014,8 10 6
13.08.2018 09:00:00 26,0 25,7 4 2 SE 1014,7 10 0
13.08.2018 08:00:00 25,2 24,9 9 5 SSW 1014,7 10 0
13.08.2018 07:00:00 25,2 24,9 9 5 SSE 1014,7 10 0
13.08.2018 06:00:00 - - - - - - - -
13.08.2018 05:00:00 - - - - - - - -
13.08.2018 04:00:00 - - - - - - - -
13.08.2018 03:00:00 - - - - - - - -
13.08.2018 02:00:00 - - - - - - - -
13.08.2018 01:00:00 - - - - - - - -
13.08.2018 00:00:00 - - - - - - - -
12.08.2018 23:00:00 - - - - - - - -
12.08.2018 22:00:00 - - - - - - - -
12.08.2018 21:00:00 - - - - - - - -
12.08.2018 20:00:00 27,6 26,9 13 7 ENE 1015,6 20 12
12.08.2018 19:00:00 28,4 28,1 11 6 ENE 1015,5 20 60
12.08.2018 18:00:00 29,0 27,2 9 5 NNE 1015,8 20 60
12.08.2018 17:00:00 29,0 24,8 15 8 NNE 1016,2 20 60
12.08.2018 16:00:00 28,8 26,6 11 6 NNE 1016,6 20 60
12.08.2018 15:00:00 28,0 25,6 9 5 N 1017,4 20 60
12.08.2018 14:00:00 28,2 27,3 11 6 NNE 1017,5 20 60
12.08.2018 13:00:00 28,0 27,0 11 6 NW 1017,5 18 60
12.08.2018 12:00:00 28,0 26,8 9 5 NE 1017,4 18 60
12.08.2018 11:00:00 27,0 25,8 13 7 NNE 1017,4 18 60
12.08.2018 10:00:00 26,2 25,0 15 8 NNE 1017,5 18 60
12.08.2018 09:00:00 26,0 24,6 15 8 NE 1016,8 18 18
12.08.2018 08:00:00 24,8 23,4 13 7 NE 1016,7 15 0
12.08.2018 07:00:00 24,2 23,0 11 6 NE 1016,7 11 0
12.08.2018 06:00:00 - - - - - - - -
12.08.2018 05:00:00 - - - - - - - -
12.08.2018 04:00:00 - - - - - - - -
12.08.2018 03:00:00 - - - - - - - -
12.08.2018 02:00:00 - - - - - - - -
12.08.2018 01:00:00 - - - - - - - -
12.08.2018 00:00:00 - - - - - - - -
11.08.2018 23:00:00 - - - - - - - -
11.08.2018 22:00:00 - - - - - - - -
11.08.2018 21:00:00 - - - - - - - -
11.08.2018 20:00:00 27,4 26,5 18 10 N 1016,9 20 24
11.08.2018 19:00:00 27,6 26,7 21 11 N 1016,8 15 36
11.08.2018 18:00:00 27,6 26,9 18 10 N 1016,8 15 60
11.08.2018 17:00:00 28,0 27,3 26 14 NNW 1017,4 15 60
11.08.2018 16:00:00 28,4 27,9 22 12 N 1017,8 20 60
11.08.2018 15:00:00 27,4 26,3 22 12 NNW 1018,3 18 60
11.08.2018 14:00:00 27,2 26,3 22 12 N 1018,6 20 60
11.08.2018 13:00:00 27,2 26,3 24 13 NNE 1018,6 20 60
11.08.2018 12:00:00 27,0 26,1 24 13 N 1018,8 20 60
11.08.2018 11:00:00 26,6 25,7 24 13 N 1018,9 20 54
11.08.2018 10:00:00 26,2 25,2 22 12 N 1018,8 25 60
11.08.2018 09:00:00 26,0 25,0 22 12 N 1018,8 20 30
11.08.2018 08:00:00 25,2 24,2 15 8 N 1018,5 20 0
11.08.2018 07:00:00 24,8 23,8 15 8 N 1018,1 15 0
11.08.2018 06:00:00 - - - - - - - -
11.08.2018 05:00:00 - - - - - - - -
11.08.2018 04:00:00 - - - - - - - -
11.08.2018 03:00:00 - - - - - - - -
11.08.2018 02:00:00 - - - - - - - -
11.08.2018 01:00:00 - - - - - - - -
11.08.2018 00:00:00 - - - - - - - -
10.08.2018 23:00:00 - - - - - - - -
10.08.2018 22:00:00 - - - - - - - -
10.08.2018 21:00:00 - - - - - - - -
10.08.2018 20:00:00 27,6 27,1 9 5 N 1018,5 12 0
10.08.2018 19:00:00 28,6 28,4 11 6 N 1018,4 12 60
10.08.2018 18:00:00 29,0 28,8 11 6 NNW 1018,4 15 60
10.08.2018 17:00:00 28,8 27,0 13 7 NNW 1018,7 20 60
10.08.2018 16:00:00 28,6 28,4 15 8 N 1018,7 20 60
10.08.2018 15:00:00 28,8 28,3 15 8 N 1018,9 20 60
10.08.2018 14:00:00 28,6 27,5 13 7 N 1019,0 20 60
10.08.2018 13:00:00 28,0 27,3 13 7 NW 1019,2 20 60

tt = temperature
td = dewpoint
ff = wind speed
dd = wind direction
ppp = reduced air pressure
vv = visibility
sd = sunshine duration

Next stations